sat.trackr.live / text

‹ back to catalog

STARLINK-32843

NORAD 62814 · 2025-018J

PAYLOAD ACTIVE UNKNOWN

§ Identity

Operator
Country
US
Launch date
2025-01-24
Launch site
AFWTR
Launch vehicle
Mass (kg)
RCS (m²)

Purposes: comms

External: N2YO · Heavens-Above · Gunter

§ Orbital elements

Epoch: 2026-09-21T22:13:40.776960Z

Period
94.01 min
Inclination
53.1587°
Eccentricity
0.0001215
Mean motion
15.31710108 rev/d
Perigee alt
469.9 km
Apogee alt
471.5 km
Semi-major
6,848.8 km
B*
2.8795e-4
RAAN
116.6418°
Arg perigee
110.9443°
Mean anomaly
249.1688°
Rev number
9,323

§ Raw data

STARLINK-328431 62814U 25018J   26264.92616640  .00008583  00000+0  28795-3 0  99982 62814  53.1587 116.6418 0001215 110.9443 249.1688 15.31710108 93232

JSON: /api/v1/satellites/62814 · /tle

For live sub-satellite position, see the globe view (requires WebGL).

§ Visibility from observer

Set your observer location to see the next 7 days of passes ≥ 10°. The values pass through the URL so the page stays shareable.

No JS? Fill the form by hand. The geolocation button needs JavaScript.